Regional Weather Roundup
Issued by NWS

Home | Current Version | Previous Version | Graphics & Text | Print | Product List | Glossary On
Versions: 1 2 3 4 5 6 7 8 9 10 11 12 13 14 15 16 17 18 19 20 21 22 23 24 25 26 27 28 29 30 31 32 33 34 35 36 37 38 39 40 41 42 43 44 45 46 47 48 49 50
000
ASUS43 KMKX 201100
RWRWI

WISCONSIN REGIONAL WEATHER ROUNDUP
NATIONAL WEATHER SERVICE MILWAUKEE/SULLIVAN WI
500 AM CST FRI JAN 20 2017

NOTE: "FAIR" INDICATES FEW OR NO CLOUDS BELOW 12,000 FEET WITH NO
SIGNIFICANT WEATHER AND/OR OBSTRUCTIONS TO VISIBILITY.

WIZ001-002-006>008-014>016-023>028-201200-
NORTHWEST WISCONSIN

CITY           SKY/WX    TMP DP  RH WIND       PRES   REMARKS
SUPERIOR ARPT  CLOUDY    33  33 100 E3        29.66F FOG
ASHLAND        CLOUDY    32  30  92 S3        29.68S
HAYWARD        CLOUDY    35  30  82 CALM      29.67R
SIREN          DRIZZLE   34  34  98 CALM      29.65S
CUMBERLAND     CLOUDY    34  32  93 SE5       29.64S FOG     WCI  30
RICE LAKE      CLOUDY    35  34  98 CALM      29.66S FOG
CHETEK         CLOUDY    34  34 100 E3        29.66R FOG
LADYSMITH      LGT RAIN  34  33  96 E5        29.69F WCI  30
EAU CLAIRE     CLOUDY    35  35 100 SE6       29.65S FOG     WCI  30
MENOMONIE        N/A    N/A N/A N/A MISG        N/A
NEW RICHMOND   DRIZZLE   34  34 100 SE5       29.64S WCI  30
OSCEOLA        DRIZZLE   35  35 100 CALM      29.66F
$$

WIZ003>005-009-010-017-018-201200-
NORTH CENTRAL WISCONSIN

CITY           SKY/WX    TMP DP  RH WIND       PRES   REMARKS
MANITOWISH WTR NOT AVBL
ARBOR VITAE    MOCLDY    29  28  95 CALM      29.67F FOG
WOODRUFF       MOCLDY    29  28  95 CALM      29.67F FOG
RHINELANDER    CLOUDY    29  29 100 SE3       29.67F FOG
EAGLE RIVER    CLOUDY    27  27 100 CALM      29.67F
LAND O LAKES   CLOUDY    24  23  97 CALM      29.69F
PHILLIPS       CLOUDY    31  31  98 SE3       29.66S
TOMAHAWK       CLOUDY    30  29  97 CALM      29.68F FOG
MEDFORD        MIX PCPN  32  31  98 E3        29.67S
MERRILL        MIX PCPN  32  32 100 CALM        N/A
$$

WIZ029-030-035-036-043>047-201200-
CENTRAL WISCONSIN

CITY           SKY/WX    TMP DP  RH WIND       PRES   REMARKS
WAUSAU         FRZ RAIN  32  31  96 SE5       29.68S FOG     WCI  27
MOSINEE        MIX PCPN  32  32 100 E5        29.70S WCI  27
MARSHFIELD     CLOUDY    33  32  96 E5        29.66S FOG     WCI  29
STEVENS POINT  MIX PCPN  31  31 100 NE3       29.70S
WAUPACA        DRIZZLE   34  33  95 CALM      29.69F
WAUTOMA        LGT RAIN  33  32  96 NE6       29.69F FOG     WCI  28
WISC RAPIDS    LGT RAIN  33  33 100 E6        29.68F FOG     WCI  28
CAMP DOUGLAS   NOT AVBL
$$

WIZ011>013-019>022-031-037>040-048>050-201200-
NORTHEAST WISCONSIN

CITY           SKY/WX    TMP DP  RH WIND       PRES   REMARKS
ANTIGO         CLOUDY    30  30 100 CALM      29.69F FOG
SHAWANO        FOG       33  32  96 CALM      29.72F VSB 1
OCONTO         CLOUDY    32  32  99 CALM      29.73F VSB 1/4
STURGEON BAY   MIX PCPN  32  32 100 NW5       29.72F VSB 1/2 WCI  27
GREEN BAY      FRZ RAIN  34  34 100 E3        29.72F VSB 1/2
MANITOWOC      LGT RAIN  36  34  93 MISG      29.72S VSB 1
APPLETON       NOT AVBL
CLINTONVILLE   MIX PCPN  32  32 100 NE5       29.71F WCI  27
OSHKOSH        LGT RAIN  34  32  92 NE7       29.68F FOG     WCI  28
$$

WIZ032>034-041-042-053>061-201200-
SOUTHWEST WISCONSIN

CITY           SKY/WX    TMP DP  RH WIND       PRES   REMARKS
LA CROSSE      LGT RAIN  37  35  92 CALM      29.66  FOG
SPARTA         CLOUDY    33  33 100 E6        29.67F FOG     WCI  28
VIROQUA        CLOUDY    34  34 100 E8        29.64S VSB 1   WCI  27
BOSCOBEL       CLOUDY    36  35  96 NE5       29.66S FOG     WCI  32
PRAIRIE DU CHI FOG       34  33  96 CALM      29.65S VSB 1/2
PLATTEVILLE    CLOUDY    35  35 100 E8        29.64S WCI  29
$$

WIZ056-057-062-063-064-067-068-201200-
SOUTH CENTRAL WISCONSIN

CITY           SKY/WX    TMP DP  RH WIND       PRES   REMARKS
REEDSBURG      DRIZZLE   34  34 100 E3        29.66F
BARABOO/DELLS  DRZL/FOG  34  33  98 E6        29.66F VSB 3/4 WCI  29
LONE ROCK      NOT AVBL
MINERAL POINT  CLOUDY    36  36 100 E6        29.63F FOG     WCI  31
MADISON        CLOUDY    36  33  89 E6        29.66F WCI  31
MIDDLETON      CLOUDY    37  37 100 E6        29.65F WCI  32
WATERTOWN      CLOUDY    35  35 100 N5        29.66F WCI  31
MONROE         FOG       34  34 100 NE7       29.63F VSB 1/4 WCI  28
JANESVILLE     LGT RAIN  36  36 100 NE7       29.64F WCI  30
$$

WIZ051-052-058>065-066-070>072-201200-
SOUTHEAST WISCONSIN

CITY           SKY/WX    TMP DP  RH WIND       PRES   REMARKS
MILWAUKEE      LGT RAIN  38  36  92 E15       29.67F VSB 1   WCI  29
WAUKESHA       RAIN      34  34 100 E7        29.67R WCI  28
MILWAUKEE/TIMM RAIN      36  34  93 E10G16    29.67F WCI  28
RACINE         CLOUDY    37  36  96 E9        29.68F FOG     WCI  30
KENOSHA        MIX PCPN  37  36  96 E13       29.65F VSB 1   WCI  29
FOND DU LAC    RAIN      35  32  88 NE8       29.67F FOG     WCI  29
SHEBOYGAN      LGT RAIN  35  34  96 NE6       29.70S VSB 1/2 WCI  30
WEST BEND      LGT RAIN  34  34 100 E10       29.68S WCI  26
JUNEAU         DRIZZLE   34  34  98 NE6       29.69R WCI  29
$$

LSZ147-162-201200-
LAKE SUPERIOR

STATION/POSITION TIME  TEMP    WIND        PRES    WAVE
                       AIR SEA DIR/SP/G            HT/PER
                 (UTC) (F)     (DEG/KT/KT) (MB)    (FT/S)
DEVILS ISLAND    1000   38     270/  2/  5 1005.7F
PORT WING        1030   35      40/  3/  3 1005.1S
SAXON HARBOR     1030   31      CALM  /  3 1005.1S
$$

LMZ867-665-643>646-201200-
LAKE MICHIGAN

STATION/POSITION TIME  TEMP    WIND        PRES    WAVE
                       AIR SEA DIR/SP/G            HT/PER
                 (UTC) (F)     (DEG/KT/KT) (MB)    (FT/S)
NORTHPORT PIER   1040   32      CALM  /  3 1006.8F
SISTER BAY       0950   33        CALM       N/A
ALGOMA LAKESHORE 1024          320/  5/  6   N/A
KEWAUNEE LAKESHO 1030   36      40/  1/  3 1006.0F
SHEBOYGAN LAKESH 1000   35      10/  6/  6 1006.5F
PORT WASHINGTON  1040   36      50/  6/  9 1006.8S
MILWAUKEE LAKESH 0830   36      70/  7/  7   N/A
KENOSHA   LAKESH 1000   35      60/  5/  6 1005.1
$$

TC  - TEMPERATURE IN CELSIUS
VSB - VISIBILITY IN STATUTE MILES
WCI - WIND CHILL INDEX
HX  - HEAT INDEX





USA.gov is the U.S. government's official web portal to all federal, state and local government web resources and services.